Regional Weather Roundup
Issued by NWS

Home | Current Version | Previous Version | Text Only | Print | Product List | Glossary Off
Versions: 1 2 3 4 5 6 7 8 9 10 11 12 13 14 15 16 17 18 19 20 21 22 23 24 25 26 27 28 29 30 31 32 33 34 35 36 37 38 39 40 41 42 43 44 45 46 47 48 49

000
ASUS45 KBOU 272007
RWRCO

WEATHER ROUNDUP FOR COLORADO
NATIONAL WEATHER SERVICE DENVER/BOULDER CO
100 PM MST FRI FEB 27 2015

NOTE: "FAIR" INDICATES FEW OR NO CLOUDS BELOW 12000 FEET WITH NO
SIGNIFICANT WEATHER AND/OR OBSTRUCTIONS TO VISIBILITY.

COZ001>005-013-030-031-272100-
...NORTHWEST COLORADO...

CITY           SKY/WX    TMP DP  RH WIND       PRES   REMARKS
CRAIG          SUNNY     29  18  63 VRB5      29.81F WCI  24
HAYDEN         SUNNY     25  10  54 CALM      29.79F
MEEKER         SUNNY     28  17  63 CALM      29.79F
MOUNT WERNER   NOT AVBL
STEAMBOAT SPGS SUNNY     26  10  50 CALM      29.78F
WALDEN         SUNNY     14  10  85 CALM      29.74F
$$

COZ006>008-011-272100-
...WEST CENTRAL VALLEYS...

CITY           SKY/WX    TMP DP  RH WIND       PRES   REMARKS
GRAND JUNCTION CLOUDY    39  25  57 CALM      29.79F
MONTROSE       MOSUNNY   33  24  69 NW8       29.80F WCI  26
EAGLE          PTSUNNY   32  18  55 CALM      29.77F
RIFLE          PTSUNNY   36  18  48 VRB5      29.77F
DELTA          SNOW      33  32  95 SW7       29.82F VSB 1/4 WCI  27
NUCLA          PTSUNNY   37  23  56 SW14G20   29.82F
$$

COZ017>023-064>068-272100-
...SOUTHWEST COLORADO...

CITY           SKY/WX    TMP DP  RH WIND       PRES   REMARKS
DURANGO        LGT SNOW  29  26  89 E8        29.81F FOG     WCI  21
CORTEZ         LGT SNOW  32  29  88 SW5       29.83F FOG     WCI  27
PAGOSA SPRINGS LGT SNOW  30  23  76 S8        29.81F WCI  22
TELLURIDE      CLOUDY    28   9  45 W10       29.76F WCI  18
WOLF CREEK PAS SNOW      10   9  92 SW22G28   29.74F VSB 1/4 WCI  -9
$$

COZ009-010-012-014-032>034-037-058>063-272100-
...CENTRAL COLORADO...

CITY           SKY/WX    TMP DP  RH WIND       PRES   REMARKS
ASPEN          LGT SNOW  26  17  68 N6        29.72F WCI  19
BUENA VISTA    CLOUDY    15   4  63 CALM      29.77F
COPPER MTN     NOT AVBL
BERTHOUD PASS  SNOW       5   0  78 NW20G26   29.63F VSB 1/2 WCI -15
COTTONWOOD PAS CLOUDY    18  10  73 CALM      29.69F
GUNNISON       MOSUNNY   30  16  55 SW12      29.77F WCI  21
KREMMLING      MOSUNNY   27  12  54 CALM      29.77F
LEADVILLE      CLOUDY    17  10  74 CALM      29.66F
SALIDA         CLOUDY    21  10  62 N5        29.86F WCI  14
SUNLIGHT       SNOW      18  14  86 W5          N/A  VSB 1/2 WCI  11
WILKERSON PASS SUNNY     19  12  73 SW6       29.69F WCI  11
$$

COZ069>075-272100-
...SAN LUIS VALLEY/SANGRE DE CRISTO MOUNTAINS...

CITY           SKY/WX    TMP DP  RH WIND       PRES   REMARKS
ALAMOSA        MOSUNNY   25  16  68 SW14      29.78F WCI  13
LA VETA PASS   LGT SNOW  19  12  73 SW6       29.72F VSB 1   WCI  11
SAGUACHE       LGT SNOW  27  18  69 SE7       29.79F WCI  19
$$

COZ035-036-038>040-272100-
...NORTHERN COLORADO FRONT RANGE...

CITY           SKY/WX    TMP DP  RH WIND       PRES   REMARKS
DENVER INTL AP MOSUNNY   16   4  59 SE5       29.92F WCI   9
DMNS CITY PARK   N/A     18   8  65 NE7       29.92F WCI   8
AURORA         MOSUNNY   16   6  63 N8        29.90F WCI   5
FRONT RANGE AP NOT AVBL
ERIE MUNI ARPT SUNNY     15   8  72 N3        29.95F
BOULDER MUN AP LGT SNOW  16  10  79 NE3       29.93F
CENTENNIAL     MOSUNNY   16   5  62 SE6       29.88F WCI   7
BROOMFIELD     NOT AVBL
FORT COLLINS   PTSUNNY   14   9  79 CALM      29.98F
LONGMONT       PTSUNNY   22   8  55 N5        29.98F WCI  16
$$

COZ041-046-047-076>085-087-088-272100-
...PIKES PEAK/PALMER DIVIDE AND SOUTHERN FOOTHILLS...

CITY           SKY/WX    TMP DP  RH WIND       PRES   REMARKS
COLO. SPRINGS  LGT SNOW  10   6  84 E9        29.92F FOG     WCI  -3
A. F. ACADEMY  FLURRIES  10   2  69 S10       29.87F WCI  -4
ELLICOTT       NOT AVBL
FALCON         LGT SNOW  10   3  74 S10       29.87F WCI  -4
FORT CARSON    SNOW      11   6  78 E9        29.92F VSB 1/2 WCI  -1
LIMON          LGT SNOW   9   5  84 S25       29.99F FOG     WCI -12
MONUMENT HILL  SUNNY     14   5  67 S15       29.81F WCI  -1
TRINIDAD       SUNNY     18   8  65 E8        29.91F WCI   8
$$

COZ042>045-048>051-090-091-272100-
...NORTHEAST COLORADO...

CITY           SKY/WX    TMP DP  RH WIND       PRES   REMARKS
GREELEY ARPT   PTSUNNY   23   7  50 S9G18     29.97F WCI  13
AKRON          CLOUDY    15   7  70 S24G31    30.04F WCI  -4
BURLINGTON     LGT SNOW  14   6  70 S24G31    30.13F WCI  -5
WRAY           CLOUDY    20   8  59 S18G24    30.17F WCI   5
STERLING       CLOUDY    21  10  63 S20G29    30.08F WCI   6
HOLYOKE        NOT AVBL
FORT MORGAN    CLOUDY    18   8  64 S18G30    30.03F WCI   2
$$

COZ086-089-092>099-272100-
...SOUTHEAST COLORADO...

CITY           SKY/WX    TMP DP  RH WIND       PRES   REMARKS
PUEBLO         LGT SNOW  16  11  80 NE8       30.00F WCI   5
LA JUNTA       NOT AVBL
LAMAR          LGT SNOW  16   9  74 SE20      30.15F WCI  -1
SPRINGFIELD      N/A     11   6  81 S22       30.12F WCI  -8
$$



USA.gov is the U.S. government's official web portal to all federal, state and local government web resources and services.